Weather in Mangut

Russia / Zabaykalsky Krai     49°41′45″N   112°40′21″E
temp.,
°C
wind,
m/s
gust,
m/s
humid.,
%
clouds,
%
prec.,
mm/h
press.,
hPa
HPBL,
m
2 december, thu
thu200:00−4wnw11206096 0.0 10111016
03:00−7nw598093 0.0 1013225
06:00−8nnw918576 0.0 10151032
09:00−12w35766 0.0 1018116
12:00−8nw5145863 0.0 10181699
15:00−7nnw5125618 0.0 10181519
18:00−12sw11795 0.0 102114
21:00−14ssw118929 0.0 102211
3 december, fri
fri300:00−14sw11915 0.0 102111
03:00−13wsw018986 0.0 102012
06:00−13se1190100 0.0 10209
09:00−14e11917 0.0 102211
12:00−6e22725 0.0 102083
15:00−2ese23707 0.0 101878
18:00−9sw11898 0.0 102210
21:00−10s11935 0.0 102310
4 december, sat
sat400:00−11s11968 0.0 102410
03:00−13s119729 0.0 102410
06:00−14s119759 0.0 102411
09:00−15s119733 0.0 102411
12:00−9ssw23772 0.0 1022113
15:00−5ssw23685 0.0 1017120
18:00−11s11865 0.0 101810
21:00−14s11938 0.0 101910
5 december, sun
sun500:00−12ese1191100 0.0 101911
03:00−10s1191100 0.1 101921
06:00−11ssw119217 0.0 102110
09:00−13sw11905 0.0 102510
12:00−6wsw1271100 0.0 102478
15:00−2wnw510614 0.0 1023505
18:00−8w486910 0.0 1028112
21:00−8w69630 0.0 1029166
6 december, mon
mon600:00−9wsw59671 0.0 1030154
03:00−10sw511755 0.0 1031168
06:00−12sw478371 0.0 103298
09:00−13ssw2390100 0.0 103240
12:00−9ssw3474100 0.0 1030164
15:00−6ssw357099 0.0 1026214
18:00−11s22895 0.0 102720
21:00−13s22945 0.0 102822